User: anonymous   Login
Location: East Fork Observatory
(32.9757°N, 94.4485°W)
Time: 03:12:28
(UTC-06:00)
Language:

DOVE 4 - Orbit

View from above orbital plane
View from above orbital plane
View from above satellite
View from above satellite

Ground track
Ground track

The orbit data is extracted from the following two-line orbital elements,

1 39430U 13066Q   19345.84257086 +.00000213 +00000-0 +47230-4 0  9993
2 39430 097.7697 290.9946 0152306 059.0537 302.5536 14.59321689322291
Epoch (UTC): 11 December 2019 20:13:18
Eccentricity: 0.0152306
inclination: 97.7697°
perigee height: 587 km
apogee height: 803 km
right ascension of ascending node: 290.9946°
argument of perigee: 59.0537°
revolutions per day: 14.59321689
mean anomaly at epoch: 302.5536°
orbit number at epoch: 32229

The dashed part of the orbit path shows where the satellite is in the earth's shadow,  

DLR